Flag for Austria Weather past 2 weeks in Bruck an der Leitha, Lower Austria, Austria

Now
59 °F

Overcast.


Feels Like: N/A
Forecast: 52 / 73 °F
Wind: N/A

Location: Wien / Schwechat-Flughafen

Current Time: Aug 20, 2014 at 9:11:36 PM

Latest Report: Aug 20, 2014 at 8:00 PM


Visibility: 28 mi

Pressure: 30.01 "Hg

Humidity: 76%

Dew point: 52 °F

Location of Bruck an der LeithaLocation

Historic Weather in Bruck an der Leitha — Graph

°F

Bruck an der Leitha temperature yesterday

Maximum temperature yesterday: 68 °F (at 10:00 AM)
Minimum temperature yesterday: 58 °F (at 11:00 PM)
Average temperature yesterday: 64 °F

Past Weeks' High & Low Weather Summary

 TemperatureHumidityPressure
High86 °F (Aug 9, 3:00 PM)97% (Aug 10, 5:00 AM)30.08 "Hg (Aug 10, 5:00 AM)
Low53 °F (Aug 18, 6:00 AM)37% (Aug 15, 2:00 PM)29.65 "Hg (Aug 13, 10:00 PM)
Average68 °F71%29.94 "Hg
* Reported Aug 5 7:00 PM — Aug 20 7:00 PM, Bruck an der Leitha, Weather by CustomWeather, © 2014

Note: Actual official high and low records may vary slightly from our data, if they occured in-between our weather recording intervals... More about our weather records

Advertising

Bruck an der Leitha weather history for previous 24 hours

 ConditionsComfort  
Time TempWeatherWind HumidityBarometerVisibility
7:00 PM
Aug 20
62 °FPartly sunny.N/A68%30.00 "Hg28 mi
6:00 PM63 °FPartly sunny.3 mph64%30.01 "Hg22 mi
5:00 PM65 °FPartly sunny.3 mph60%30.01 "Hg19 mi
4:00 PM65 °FOvercast.5 mph60%30.03 "Hg22 mi
3:00 PM65 °FOvercast.5 mph61%30.04 "Hg25 mi
2:00 PM65 °FOvercast.6 mph61%30.04 "Hg18 mi
1:00 PM65 °FOvercast.6 mph65%30.04 "Hg19 mi
12:00 PM63 °FOvercast.6 mph73%30.04 "Hg19 mi
11:00 AM62 °FOvercast.6 mph78%30.03 "Hg19 mi
10:00 AM63 °FOvercast.3 mph81%30.02 "Hg19 mi
9:00 AM62 °FOvercast.N/A91%30.00 "Hg9 mi
8:00 AM61 °FOvercast.N/A92%30.00 "Hg9 mi
7:00 AM60 °FOvercast.N/A94%29.98 "Hg7 mi
6:00 AM60 °FOvercast.N/A92%29.97 "Hg7 mi
5:00 AM60 °FOvercast.N/A90%29.96 "Hg9 mi
4:00 AM60 °FOvercast.N/A93%29.94 "Hg11 mi
3:00 AM61 °FOvercast.N/A90%29.94 "Hg9 mi
2:00 AM60 °FOvercast.N/A93%29.95 "Hg8 mi
1:00 AM58 °FPassing clouds.N/A95%29.95 "Hg6 mi
12:00 AM61 °FPassing clouds.N/A89%29.95 "Hg6 mi
11:00 PM
Aug 19
58 °FPassing clouds.N/A91%29.95 "Hg4 mi
10:00 PM61 °FPassing clouds.N/A84%29.94 "Hg18 mi
9:00 PM63 °FPassing clouds.N/A80%29.93 "Hg19 mi
Weather by CustomWeather, © 2014

See weather overviewHow to use our weather pages